TimeMST,TemperatureF,Dew PointF,Humidity,Sea Level PressureIn,VisibilityMPH,Wind Direction,Wind SpeedMPH,Gust SpeedMPH,PrecipitationIn,Events,Conditions,WindDirDegrees,DateUTC
12:37 AM,39.2,37.4,93,30.16,4.0,SSE,4.6,-,0.05,Rain,Rain,160,2013-01-26 07:37:00
12:54 AM,39.9,37.9,93,30.06,5.0,Calm,Calm,-,0.07,Rain,Light Rain,0,2013-01-26 07:54:00
1:12 AM,39.2,37.4,93,30.16,4.0,Calm,Calm,-,N/A,Rain,Light Rain,0,2013-01-26 08:12:00
1:42 AM,39.2,37.4,93,30.14,6.0,ENE,3.5,-,N/A,Rain,Light Rain,70,2013-01-26 08:42:00
1:54 AM,39.0,37.0,93,30.02,6.0,East,5.8,-,N/A,Rain,Rain,80,2013-01-26 08:54:00
2:54 AM,37.9,36.0,93,30.00,5.0,Calm,Calm,-,0.00,Rain,Light Rain,0,2013-01-26 09:54:00
3:54 AM,37.9,35.1,89,29.96,5.0,ENE,6.9,-,0.00,Rain,Light Rain,60,2013-01-26 10:54:00
4:54 AM,37.0,35.1,93,29.95,7.0,NE,6.9,-,N/A,Rain,Light Rain,50,2013-01-26 11:54:00
5:54 AM,37.0,35.1,93,29.94,10.0,NE,8.1,-,N/A,Rain,Light Rain,50,2013-01-26 12:54:00
6:15 AM,37.4,35.6,93,30.01,10.0,ENE,9.2,-,N/A,,Overcast,60,2013-01-26 13:15:00
6:54 AM,37.0,35.1,93,29.93,10.0,NE,3.5,-,N/A,,Overcast,50,2013-01-26 13:54:00
7:54 AM,39.0,36.0,89,29.89,10.0,East,4.6,-,N/A,,Overcast,90,2013-01-26 14:54:00
8:54 AM,39.0,36.0,89,29.91,5.0,East,5.8,-,N/A,Rain,Light Rain,90,2013-01-26 15:54:00
9:54 AM,39.0,39.0,100,29.91,3.0,East,4.6,-,N/A,Rain,Light Rain,80,2013-01-26 16:54:00
10:54 AM,41.0,41.0,100,29.88,5.0,ESE,4.6,-,0.00,Rain,Light Rain,120,2013-01-26 17:54:00
11:01 AM,41.0,41.0,100,29.97,5.0,ESE,4.6,-,0.00,Rain,Light Rain,120,2013-01-26 18:01:00
11:24 AM,42.8,41.0,93,29.97,5.0,Variable,3.5,-,0.00,Rain,Light Rain,0,2013-01-26 18:24:00
11:54 AM,42.1,39.9,92,29.86,4.0,South,4.6,-,0.00,Rain,Light Rain,190,2013-01-26 18:54:00
12:49 PM,42.8,39.2,87,29.92,2.5,SW,6.9,-,N/A,Rain,Rain,220,2013-01-26 19:49:00
12:54 PM,42.1,39.9,92,29.82,2.5,Variable,5.8,-,N/A,Rain,Rain,0,2013-01-26 19:54:00
1:05 PM,42.8,39.2,87,29.91,3.0,SSW,6.9,-,0.00,Rain,Light Rain,210,2013-01-26 20:05:00
1:16 PM,42.8,39.2,87,29.90,2.5,SSW,10.4,17.3,0.02,Rain,Rain,210,2013-01-26 20:16:00
1:20 PM,42.8,39.2,87,29.90,3.0,SW,11.5,17.3,0.02,Rain,Rain,220,2013-01-26 20:20:00
1:54 PM,42.1,39.0,89,29.80,3.0,SSW,11.5,19.6,0.03,Rain,Light Rain,210,2013-01-26 20:54:00
2:01 PM,42.8,39.2,87,29.89,3.0,SSW,10.4,-,0.00,Rain,Light Rain,200,2013-01-26 21:01:00
2:32 PM,42.8,39.2,87,29.88,3.0,SSW,16.1,23.0,0.00,Rain,Rain,210,2013-01-26 21:32:00
2:54 PM,42.1,39.9,92,29.80,4.0,SSW,13.8,20.7,0.00,Rain,Light Rain,210,2013-01-26 21:54:00
3:05 PM,42.8,39.2,87,29.89,1.8,WSW,12.7,20.7,0.00,Rain,Rain,240,2013-01-26 22:05:00
3:28 PM,41.0,39.2,93,29.89,1.2,SW,13.8,-,0.02,Rain,Rain,220,2013-01-26 22:28:00
3:32 PM,41.0,39.2,93,29.89,2.0,SW,10.4,-,0.03,Rain,Rain,230,2013-01-26 22:32:00
3:36 PM,41.0,39.2,93,29.89,3.0,SW,8.1,-,0.03,Rain,Light Rain,230,2013-01-26 22:36:00
3:46 PM,42.8,39.2,87,29.88,4.0,SW,6.9,-,0.03,Rain,Light Rain,230,2013-01-26 22:46:00
3:54 PM,42.1,39.9,92,29.80,4.0,WSW,5.8,-,0.03,Rain,Light Rain,240,2013-01-26 22:54:00
4:03 PM,42.8,39.2,87,29.88,2.5,SW,8.1,-,0.00,Rain,Light Rain,230,2013-01-26 23:03:00
4:17 PM,42.8,41.0,93,29.88,3.0,SW,10.4,-,0.00,Rain,Light Rain,230,2013-01-26 23:17:00
4:26 PM,42.8,41.0,93,29.88,1.8,WSW,11.5,-,0.00,Rain,Rain,240,2013-01-26 23:26:00
4:35 PM,42.8,39.2,87,29.88,1.2,WSW,9.2,16.1,N/A,Rain,Rain,250,2013-01-26 23:35:00
4:41 PM,42.8,39.2,87,29.88,2.0,WSW,10.4,17.3,N/A,Rain,Rain,240,2013-01-26 23:41:00
4:45 PM,42.8,39.2,87,29.89,3.0,WSW,9.2,-,N/A,Rain,Light Rain,250,2013-01-26 23:45:00
4:54 PM,42.1,39.9,92,29.80,6.0,WSW,11.5,-,N/A,Rain,Light Rain,240,2013-01-26 23:54:00
5:54 PM,41.0,39.9,96,29.82,4.0,WSW,8.1,-,N/A,Rain,Light Rain,240,2013-01-27 00:54:00
6:54 PM,41.0,39.0,93,29.84,8.0,WSW,10.4,18.4,0.03,Rain,Light Rain,250,2013-01-27 01:54:00
7:09 PM,41.0,39.2,93,29.93,6.0,WSW,9.2,-,0.01,Rain,Light Rain,250,2013-01-27 02:09:00
7:37 PM,41.0,39.2,93,29.93,7.0,WSW,9.2,-,0.02,Rain,Light Rain,240,2013-01-27 02:37:00
7:54 PM,41.0,37.9,89,29.85,8.0,WSW,12.7,17.3,0.02,Rain,Light Rain,240,2013-01-27 02:54:00
8:07 PM,39.2,37.4,93,29.94,6.0,WSW,10.4,20.7,0.00,Rain,Light Rain,250,2013-01-27 03:07:00
8:20 PM,39.2,37.4,93,29.94,6.0,WSW,9.2,-,0.00,Rain,Light Rain,240,2013-01-27 03:20:00
8:54 PM,39.9,37.9,93,29.86,6.0,WSW,10.4,-,0.00,Rain,Light Rain,240,2013-01-27 03:54:00
9:42 PM,39.2,37.4,93,29.95,3.0,WSW,6.9,-,0.02,Rain,Light Rain,250,2013-01-27 04:42:00
9:54 PM,39.9,37.9,93,29.87,6.0,WSW,11.5,19.6,0.02,Rain,Light Rain,240,2013-01-27 04:54:00
10:48 PM,39.2,37.4,93,29.96,1.8,WSW,10.4,-,0.00,,Overcast,250,2013-01-27 05:48:00
10:52 PM,39.2,37.4,93,29.96,0.8,WSW,9.2,-,0.00,,Overcast,240,2013-01-27 05:52:00
10:54 PM,39.9,37.9,93,29.87,0.8,SW,10.4,-,0.00,,Overcast,230,2013-01-27 05:54:00
11:16 PM,39.2,37.4,93,29.97,1.8,WSW,10.4,-,0.00,Rain,Light Rain,240,2013-01-27 06:16:00
11:18 PM,39.2,37.4,93,29.97,4.0,WSW,8.1,-,0.00,Rain,Light Rain,250,2013-01-27 06:18:00
11:29 PM,39.2,37.4,93,29.97,1.8,WSW,11.5,-,0.00,,Overcast,240,2013-01-27 06:29:00
11:36 PM,39.2,37.4,93,29.97,0.8,SW,10.4,-,0.00,,Overcast,230,2013-01-27 06:36:00
11:45 PM,39.2,37.4,93,29.98,1.5,WSW,10.4,-,0.00,,Overcast,240,2013-01-27 06:45:00
11:54 PM,39.0,37.9,96,29.88,0.8,WSW,8.1,-,0.00,Rain,Light Rain,240,2013-01-27 06:54:00